TimeEDT,TemperatureF,Dew PointF,Humidity,Sea Level PressureIn,VisibilityMPH,Wind Direction,Wind SpeedMPH,Gust SpeedMPH,PrecipitationIn,Events,Conditions,WindDirDegrees,DateUTC
1:54 AM,70.0,64.0,81,30.08,10.0,Calm,Calm,-,N/A,,Overcast,0,2013-08-16 05:54:00
2:54 AM,69.1,64.0,84,30.06,10.0,Calm,Calm,-,N/A,,Overcast,0,2013-08-16 06:54:00
3:54 AM,69.1,63.0,81,30.06,10.0,NE,4.6,-,N/A,,Overcast,40,2013-08-16 07:54:00
4:54 AM,69.1,63.0,81,30.07,10.0,ENE,5.8,-,N/A,,Overcast,70,2013-08-16 08:54:00
5:54 AM,68.0,63.0,84,30.07,10.0,NE,5.8,-,N/A,,Overcast,50,2013-08-16 09:54:00
6:15 AM,68.0,64.4,88,30.08,10.0,NE,6.9,-,N/A,,Overcast,40,2013-08-16 10:15:00
6:54 AM,68.0,64.0,87,30.09,10.0,NNE,4.6,-,N/A,,Overcast,30,2013-08-16 10:54:00
7:34 AM,68.0,62.6,83,30.11,10.0,NE,5.8,-,N/A,,Overcast,40,2013-08-16 11:34:00
7:54 AM,68.0,63.0,84,30.10,10.0,NE,8.1,-,N/A,,Overcast,40,2013-08-16 11:54:00
8:54 AM,70.0,63.0,78,30.11,10.0,Variable,5.8,-,N/A,,Overcast,0,2013-08-16 12:54:00
9:54 AM,72.0,63.0,73,30.12,10.0,NE,9.2,-,N/A,,Overcast,40,2013-08-16 13:54:00
10:40 AM,69.8,64.4,83,30.14,2.0,NNE,6.9,-,0.06,Rain,Heavy Rain,20,2013-08-16 14:40:00
10:45 AM,68.0,64.4,88,30.14,1.5,NNE,4.6,-,0.09,Rain,Heavy Rain,30,2013-08-16 14:45:00
10:54 AM,68.0,64.9,90,30.14,1.8,North,5.8,-,0.14,Rain,Heavy Rain,360,2013-08-16 14:54:00
11:11 AM,68.0,64.4,88,30.14,2.5,NNE,6.9,-,0.06,Rain,Rain,30,2013-08-16 15:11:00
11:20 AM,66.2,64.4,94,30.14,1.5,NNE,6.9,-,0.12,Rain,Heavy Rain,30,2013-08-16 15:20:00
11:26 AM,66.2,64.4,94,30.14,2.0,NNE,6.9,-,0.13,Rain,Rain,30,2013-08-16 15:26:00
11:44 AM,66.2,64.4,94,30.13,3.0,NNE,5.8,-,0.17,Rain,Rain,20,2013-08-16 15:44:00
11:54 AM,68.0,64.9,90,30.13,5.0,NE,8.1,-,0.18,Rain,Rain,40,2013-08-16 15:54:00
12:44 PM,66.2,64.4,94,30.13,5.0,NNE,5.8,-,0.08,Rain,Rain,30,2013-08-16 16:44:00
12:54 PM,66.9,64.9,93,30.12,7.0,NE,5.8,-,0.08,Rain,Light Rain,40,2013-08-16 16:54:00
1:54 PM,68.0,64.0,87,30.12,10.0,NE,6.9,-,0.04,,Mostly Cloudy,40,2013-08-16 17:54:00
2:54 PM,68.0,64.9,90,30.10,10.0,NNE,5.8,-,0.03,Rain,Light Rain,20,2013-08-16 18:54:00
3:54 PM,68.0,64.9,90,30.10,6.0,ENE,4.6,-,0.07,Rain,Rain,60,2013-08-16 19:54:00
4:54 PM,68.0,64.9,90,30.09,7.0,NE,6.9,-,0.03,Rain,Light Rain,40,2013-08-16 20:54:00
5:54 PM,68.0,64.9,90,30.10,8.0,NNE,6.9,-,0.03,Rain,Light Rain,30,2013-08-16 21:54:00
6:40 PM,68.0,64.4,88,30.10,10.0,NNE,6.9,-,0.00,,Overcast,30,2013-08-16 22:40:00
6:54 PM,68.0,66.0,93,30.09,10.0,NNE,6.9,-,0.00,,Overcast,30,2013-08-16 22:54:00
7:20 PM,68.0,66.2,94,30.10,7.0,North,5.8,-,0.00,Rain,Light Rain,10,2013-08-16 23:20:00
7:54 PM,66.9,64.9,93,30.11,8.0,NNE,6.9,-,0.01,,Overcast,20,2013-08-16 23:54:00
8:54 PM,66.9,64.9,93,30.13,10.0,North,5.8,-,N/A,,Overcast,10,2013-08-17 00:54:00
9:54 PM,66.9,64.9,93,30.13,10.0,NE,6.9,-,0.00,,Overcast,50,2013-08-17 01:54:00
10:54 PM,66.9,64.9,93,30.14,10.0,NE,5.8,-,N/A,,Overcast,50,2013-08-17 02:54:00
11:23 PM,66.2,64.4,94,30.14,10.0,NE,5.8,-,N/A,,Overcast,50,2013-08-17 03:23:00
11:50 PM,66.2,64.4,94,30.14,10.0,NE,5.8,-,N/A,,Overcast,50,2013-08-17 03:50:00
11:54 PM,66.9,64.0,90,30.14,10.0,NE,5.8,-,N/A,,Overcast,40,2013-08-17 03:54:00